Location: Knowlton
(51.2333°N, 1.2667°E)
Time: 08:42:36
(UTC+00:00)

Cosmos 540 Rocket - Pass Details

Date: 18 April 2021
Orbit: 741 x 753 km, 74.1° (Epoch: 05 May)

Event Time Altitude Azimuth Distance (km) Brightness Sun altitude
Rises 22:14:04 0° 336° (NNW) 3,201 8.2 -23.9°
Reaches altitude 10° 22:16:27 10° 338° (NNW) 2,271 7.0 -24.1°
Maximum altitude 22:21:35 73° 64° (ENE) 782 3.4 -24.5°
Enters shadow 22:22:05 67° 107° (ESE) 807 3.4 -24.5°
